Total_Precipitation_Accumulation
0.02 0.06 0.11 0.17 0.16 0.11 0.06 0.05 0.06 0.07 0.12 0.19 0.34 0.44 0.46 0.45 0.45 0.39 0.29 0.27 0.23 0.24 0.24 0.26 0.30 0.34 0.41 0.53 0.54 0.55 0.68 0.77 0.83 0.81 0.85 0.90 0.92 0.92 1.00 1.00 1.01 1.12 1.16 1.15
0.03 0.05 0.08 0.10 0.13 0.09 0.06 0.05 0.05 0.06 0.13 0.25 0.40 0.46 0.48 0.43 0.40 0.37 0.35 0.29 0.27 0.28 0.31 0.29 0.31 0.38 0.45 0.54 0.61 0.72 0.98 1.11 1.12 1.16 1.17 1.16 1.14 1.09 1.15 1.22 1.34 1.37 1.35 1.32
0.05 0.07 0.08 0.13 0.11 0.10 0.08 0.07 0.07 0.10 0.19 0.27 0.38 0.53 0.59 0.50 0.38 0.37 0.35 0.35 0.35 0.38 0.43 0.40 0.41 0.44 0.47 0.51 0.61 0.77 0.95 1.09 1.18 1.22 1.23 1.28 1.30 1.31 1.32 1.37 1.41 1.44 1.48 1.48
0.10 0.10 0.17 0.15 0.12 0.13 0.12 0.12 0.15 0.23 0.31 0.35 0.38 0.44 0.48 0.41 0.39 0.41 0.40 0.44 0.48 0.49 0.53 0.53 0.53 0.53 0.58 0.70 0.80 0.89 1.00 1.11 1.26 1.31 1.35 1.39 1.34 1.28 1.26 1.26 1.25 1.23 1.21 1.19
0.21 0.19 0.18 0.16 0.19 0.21 0.20 0.24 0.27 0.37 0.48 0.52 0.50 0.50 0.58 0.50 0.48 0.47 0.49 0.50 0.55 0.60 0.62 0.67 0.73 0.72 0.73 0.83 0.96 1.07 1.13 1.26 1.36 1.44 1.52 1.46 1.35 1.28 1.19 1.15 1.07 1.01 0.98 1.01
0.32 0.34 0.33 0.25 0.29 0.28 0.30 0.49 0.46 0.51 0.62 0.70 0.70 0.85 0.89 0.67 0.62 0.56 0.50 0.53 0.58 0.67 0.72 0.76 0.86 0.90 0.89 0.92 0.98 1.05 1.11 1.18 1.27 1.35 1.48 1.50 1.41 1.37 1.31 1.28 1.18 1.12 1.07 1.05
0.41 0.43 0.38 0.35 0.33 0.34 0.59 0.79 0.73 0.69 0.68 0.78 0.88 0.81 0.76 0.63 0.61 0.58 0.51 0.52 0.54 0.61 0.72 0.77 0.84 0.92 0.98 0.98 0.94 0.94 0.92 0.91 1.00 1.14 1.26 1.33 1.35 1.34 1.38 1.38 1.31 1.19 1.05 0.98
0.53 0.66 0.73 0.52 0.43 0.59 0.80 0.80 0.87 0.78 0.74 0.79 0.84 0.86 0.80 0.71 0.64 0.57 0.48 0.50 0.54 0.58 0.64 0.73 0.83 0.96 1.06 1.03 0.99 0.97 0.96 0.98 1.03 1.10 1.09 1.08 1.14 1.18 1.25 1.32 1.29 1.19 1.03 0.89
0.77 0.88 0.81 0.60 0.59 0.65 0.66 0.79 0.82 0.77 0.77 0.75 0.74 0.75 0.69 0.59 0.54 0.55 0.49 0.46 0.43 0.48 0.56 0.68 0.84 0.99 1.10 1.07 1.11 1.12 1.08 1.11 1.12 1.14 1.14 1.14 1.13 1.13 1.13 1.11 1.03 0.96 0.86 0.85
0.93 1.03 0.88 0.73 0.66 0.66 0.69 0.74 0.75 0.73 0.78 0.77 0.70 0.65 0.62 0.56 0.49 0.49 0.45 0.39 0.38 0.39 0.46 0.56 0.65 0.74 0.87 0.92 1.00 1.10 1.08 1.00 0.92 0.90 0.91 0.95 1.00 1.00 1.02 0.98 0.93 0.88 0.83 0.84
1.08 1.24 1.14 0.97 0.79 0.72 0.79 0.81 0.83 0.83 0.79 0.74 0.71 0.73 0.76 0.68 0.53 0.43 0.41 0.41 0.41 0.42 0.46 0.50 0.55 0.60 0.68 0.78 0.89 1.05 1.11 1.04 0.98 0.94 0.90 0.89 0.93 0.97 0.94 0.92 0.87 0.80 0.77 0.82
1.19 1.18 1.20 1.14 0.90 0.84 0.90 0.96 0.94 0.87 0.81 0.77 0.78 0.76 0.68 0.60 0.51 0.41 0.41 0.46 0.51 0.52 0.51 0.49 0.51 0.57 0.65 0.75 0.89 1.03 1.05 0.96 0.94 0.94 0.93 0.92 0.89 0.92 0.94 0.83 0.82 0.77 0.76 0.78
0.89 1.04 1.08 1.00 0.92 0.89 0.96 1.00 1.03 0.94 0.81 0.73 0.70 0.66 0.58 0.55 0.52 0.46 0.43 0.45 0.51 0.55 0.51 0.46 0.46 0.50 0.56 0.68 0.86 0.99 1.00 0.97 0.93 0.92 0.97 0.96 0.92 0.91 0.96 0.89 0.71 0.64 0.63 0.59
0.92 0.98 1.08 1.01 0.96 0.93 1.00 1.09 1.10 0.99 0.87 0.77 0.67 0.61 0.58 0.56 0.56 0.55 0.55 0.59 0.58 0.50 0.42 0.39 0.40 0.42 0.47 0.56 0.75 0.91 0.94 0.99 0.97 0.93 0.90 0.88 0.85 0.85 0.85 0.87 0.80 0.67 0.56 0.47
0.91 0.86 0.94 0.93 0.94 0.99 1.09 1.04 0.99 0.98 0.86 0.73 0.63 0.55 0.49 0.49 0.52 0.58 0.65 0.70 0.60 0.48 0.43 0.38 0.37 0.37 0.40 0.48 0.57 0.68 0.71 0.71 0.69 0.69 0.72 0.71 0.69 0.66 0.65 0.65 0.68 0.72 0.62 0.45
0.77 0.78 0.78 0.86 0.91 0.92 0.98 0.97 0.89 0.86 0.79 0.73 0.64 0.58 0.53 0.50 0.50 0.53 0.59 0.61 0.57 0.51 0.46 0.42 0.41 0.39 0.37 0.41 0.45 0.46 0.46 0.51 0.45 0.39 0.42 0.47 0.50 0.51 0.50 0.54 0.60 0.69 0.64 0.47
0.74 0.78 0.73 0.77 0.82 0.81 0.75 0.77 0.77 0.76 0.73 0.71 0.66 0.57 0.49 0.47 0.53 0.59 0.57 0.51 0.44 0.39 0.38 0.36 0.37 0.37 0.35 0.37 0.36 0.36 0.32 0.31 0.29 0.23 0.26 0.36 0.42 0.43 0.44 0.51 0.58 0.67 0.61 0.43
0.69 0.69 0.63 0.59 0.58 0.65 0.63 0.62 0.65 0.65 0.66 0.63 0.55 0.48 0.43 0.43 0.51 0.59 0.52 0.44 0.39 0.34 0.30 0.26 0.25 0.26 0.29 0.29 0.27 0.27 0.25 0.24 0.22 0.21 0.28 0.33 0.33 0.39 0.50 0.58 0.63 0.68 0.62 0.49
0.60 0.55 0.50 0.47 0.42 0.43 0.46 0.47 0.54 0.54 0.50 0.47 0.44 0.41 0.37 0.36 0.39 0.44 0.38 0.37 0.36 0.31 0.25 0.18 0.20 0.20 0.22 0.19 0.19 0.23 0.26 0.25 0.22 0.24 0.31 0.31 0.33 0.42 0.55 0.61 0.63 0.66 0.64 0.62
0.48 0.42 0.38 0.35 0.32 0.32 0.34 0.35 0.35 0.35 0.32 0.29 0.29 0.30 0.30 0.30 0.30 0.34 0.31 0.31 0.31 0.25 0.20 0.15 0.14 0.16 0.19 0.17 0.16 0.18 0.21 0.23 0.23 0.22 0.24 0.29 0.35 0.39 0.45 0.50 0.52 0.55 0.58 0.60
0.40 0.34 0.32 0.32 0.32 0.29 0.25 0.22 0.22 0.23 0.23 0.20 0.20 0.22 0.25 0.25 0.23 0.27 0.36 0.36 0.30 0.21 0.18 0.19 0.15 0.14 0.14 0.15 0.17 0.18 0.22 0.24 0.24 0.25 0.24 0.26 0.31 0.37 0.42 0.47 0.51 0.51 0.52 0.55
0.39 0.33 0.30 0.30 0.31 0.30 0.24 0.19 0.18 0.18 0.18 0.19 0.19 0.17 0.17 0.19 0.21 0.25 0.32 0.36 0.31 0.29 0.20 0.16 0.14 0.13 0.13 0.12 0.14 0.19 0.22 0.26 0.30 0.33 0.32 0.30 0.33 0.41 0.46 0.47 0.50 0.49 0.53 0.55
0.37 0.33 0.32 0.31 0.30 0.29 0.25 0.22 0.18 0.16 0.17 0.18 0.18 0.19 0.18 0.18 0.20 0.25 0.28 0.27 0.28 0.32 0.25 0.20 0.17 0.15 0.13 0.12 0.16 0.23 0.23 0.24 0.28 0.32 0.34 0.32 0.32 0.36 0.40 0.41 0.47 0.50 0.51 0.55
0.39 0.35 0.32 0.29 0.27 0.30 0.30 0.26 0.22 0.19 0.19 0.19 0.18 0.20 0.21 0.22 0.22 0.22 0.23 0.25 0.27 0.27 0.24 0.26 0.22 0.18 0.16 0.16 0.22 0.26 0.26 0.26 0.26 0.26 0.26 0.26 0.27 0.31 0.40 0.43 0.43 0.43 0.45 0.48
0.45 0.40 0.32 0.28 0.29 0.29 0.29 0.29 0.27 0.23 0.20 0.19 0.18 0.19 0.21 0.26 0.33 0.33 0.31 0.27 0.28 0.25 0.26 0.27 0.23 0.23 0.22 0.25 0.25 0.26 0.27 0.30 0.32 0.31 0.28 0.29 0.34 0.38 0.41 0.39 0.35 0.33 0.35 0.40
0.49 0.45 0.38 0.32 0.28 0.26 0.27 0.29 0.31 0.29 0.26 0.24 0.24 0.24 0.25 0.27 0.31 0.37 0.38 0.35 0.32 0.28 0.28 0.28 0.24 0.23 0.23 0.25 0.29 0.31 0.31 0.34 0.36 0.38 0.37 0.38 0.44 0.47 0.37 0.29 0.26 0.27 0.30 0.33
0.48 0.43 0.40 0.36 0.30 0.26 0.25 0.28 0.31 0.34 0.33 0.34 0.34 0.34 0.37 0.41 0.45 0.44 0.41 0.36 0.32 0.31 0.31 0.28 0.23 0.21 0.18 0.19 0.21 0.22 0.24 0.29 0.35 0.42 0.46 0.45 0.43 0.41 0.33 0.26 0.24 0.26 0.31 0.33